Weather History for Caldwell, NJ

Change the Weather History Date:

Monday, January 21, 2013

  Actual Average Record
Temperature  
Mean Temperature 26 °F -  
Max Temperature 30 °F 35 °F 62 °F (2006)
Min Temperature 21 °F 17 °F -14 °F (1985)
Degree Days  
Heating Degree Days 40    
Moisture  
Dew Point 11 °F    
Average Humidity 51    
Maximum Humidity 69    
Minimum Humidity 39    
Precipitation  
Precipitation 0.00 in - - ()
Sea Level Pressure  
Sea Level Pressure 30.01 in    
Wind  
Wind Speed 4 mph (West)    
Max Wind Speed 8 mph    
Max Gust Speed -    
Visibility 10 miles    
Events      
Averages and records for this station are not official NWS values.
T = Trace of Precipitation, MM = Missing Value Source: NWS Daily Summary

Daily Weather History Graph

Daily Weather History Graph

Search for Another Location

Airport:

Trip Planner

Search our weather history database for the weather conditions in past years. The results will help you decide how hot, cold, wet, or windy it might be!

Date:

Astronomy

Jan. 21, 2013 Rise Set
Actual Time 7:16 AM EST 5:01 PM EST
Civil Twilight 6:46 AM EST 5:31 PM EST
Nautical Twilight 6:12 AM EST 6:04 PM EST
Astronomical Twilight 5:40 AM EST 6:37 PM EST
Moon 12:39 PM EST (1/21) 2:42 AM EST (1/21)
Length of Visible Light 10h 44m
Length of Day
9h 45m
Waxing Gibbous, 75% of the Moon is Illuminated
Jan 21
Waxing Gibbous
Jan 26
Full
Feb 3
Last Quarter
Feb 10
New
Feb 17
First Quarter

Hourly Weather History & Observations

Time (EST) Temp. Windchill Dew Point Humidity Pressure Visibility Wind Dir Wind Speed Gust Speed Precip Events Conditions
12:53 AM 28.0 °F 20.8 °F 7.0 °F 41% 30.08 in 10.0 mi NNW 6.9 mph - N/A   Clear
1:53 AM 27.0 °F 19.5 °F 5.0 °F 39% 30.10 in 10.0 mi WNW 6.9 mph - N/A   Clear
2:53 AM 26.1 °F 19.4 °F 6.1 °F 43% 30.10 in 10.0 mi WNW 5.8 mph - N/A   Clear
3:53 AM 25.0 °F - 7.0 °F 46% 30.10 in 10.0 mi Calm Calm - N/A   Clear
4:53 AM 23.0 °F - 9.0 °F 55% 30.10 in 10.0 mi Calm Calm - N/A   Clear
5:53 AM 21.9 °F - 10.9 °F 63% 30.10 in 10.0 mi Calm Calm - N/A   Clear
6:53 AM 24.1 °F - 9.0 °F 53% 30.11 in 10.0 mi Calm Calm - N/A   Overcast
7:53 AM 25.0 °F - 10.0 °F 53% 30.11 in 10.0 mi Calm Calm - N/A   Overcast
8:53 AM 26.1 °F - 8.1 °F 47% 30.12 in 10.0 mi Calm Calm - N/A   Overcast
9:53 AM 27.0 °F - 8.1 °F 45% 30.12 in 10.0 mi Calm Calm - N/A   Overcast
10:53 AM 27.0 °F - 8.1 °F 45% 30.09 in 10.0 mi Calm Calm - N/A   Overcast
11:53 AM 28.0 °F 22.8 °F 7.0 °F 41% 30.04 in 10.0 mi SSW 4.6 mph - N/A   Overcast
12:53 PM 28.9 °F 23.9 °F 8.1 °F 41% 30.00 in 10.0 mi WSW 4.6 mph - N/A   Overcast
1:53 PM 30.0 °F 25.2 °F 9.0 °F 41% 29.98 in 10.0 mi Variable 4.6 mph - N/A   Overcast
2:53 PM 28.9 °F 21.1 °F 10.9 °F 47% 29.96 in 10.0 mi West 8.1 mph - N/A   Overcast
3:53 PM 28.9 °F 23.9 °F 12.9 °F 51% 29.93 in 10.0 mi West 4.6 mph - N/A   Overcast
4:53 PM 28.9 °F 25.2 °F 14.0 °F 54% 29.92 in 10.0 mi NW 3.5 mph - N/A   Overcast
5:53 PM 28.9 °F - 15.1 °F 56% 29.92 in 10.0 mi Calm Calm - N/A   Overcast
6:53 PM 28.0 °F - 15.1 °F 58% 29.91 in 10.0 mi Calm Calm - N/A   Overcast
7:53 PM 28.0 °F 24.2 °F 16.0 °F 61% 29.92 in 10.0 mi NW 3.5 mph - N/A   Overcast
8:53 PM 28.0 °F 24.2 °F 15.1 °F 58% 29.89 in 10.0 mi West 3.5 mph - N/A   Overcast
9:53 PM 28.0 °F 21.7 °F 17.1 °F 63% 29.89 in 10.0 mi West 5.8 mph - N/A   Clear
10:53 PM 26.1 °F 20.5 °F 17.1 °F 69% 29.86 in 10.0 mi WNW 4.6 mph - N/A   Clear
11:53 PM 26.1 °F 20.5 °F 14.0 °F 60% 29.87 in 10.0 mi Variable 4.6 mph - N/A   Clear